Location: Fort Worth, Tx
(32.7431°N, 97.3695°W)
Time: 07:14:34
(UTC-05:00)

Explorer 11/Cluster Stage 4 - Pass Details

Date: 08 February 2026
Orbit: 463 x 1176 km, 28.8° (Epoch: 5 March)

Event Time Altitude Azimuth Distance (km) Brightness Sun altitude
Rises 20:36:29 0° 262° (W) 2,839 11.2 -18.9°
Reaches altitude 10° 20:38:38 10° 258° (WSW) 2,029 9.9 -19.3°
Maximum altitude 20:43:18 57° 180° (S) 869 6.7 -20.3°
Enters shadow 20:45:17 36° 121° (ESE) 1,216 7.1 -20.7°
